COSMOS 2539

Last updated on Sat Aug 15 2026 00:03:01 GMT+0000 (Coordinated Universal Time)

1 44457U 19048A 26226.21388521 .00000065 00000+0 00000+0 0 9993 2 44457 0.0167 111.4860 0000637 24.6724 275.4509 1.00270983 25809
UTC large
Height (km)
Speed (km/s)
/
Latitude / Longitude
Inclination (degrees)
Orbital Period (minutes)
Azimuth
Elevation
Range (km)
Doppler Factor

Next 0 passes for location: London (51.5072 / 0.1276)

No passes found over London.
COSMOS 2539